Wind_Speed
29 29 30 30 30 30 30 30 30 31 32 32 31 31 31 31 32 32 32 32 33 33 34 35 36 37 38 39 40 40 40 41 42 42 43 43 44 45 46 46 46 47 47 47
30 30 30 31 31 31 31 31 31 32 33 33 32 31 31 31 31 32 32 32 33 33 34 34 35 36 38 39 40 40 41 42 43 44 44 45 45 46 47 48 48 48 48 48
31 31 31 31 31 32 32 32 32 33 34 34 34 33 31 31 32 32 32 32 32 32 33 34 35 36 37 38 39 41 43 43 44 45 46 47 47 47 47 47 48 49 49 49
32 32 33 33 32 33 33 33 34 34 35 34 34 35 32 32 32 32 32 32 32 33 33 34 35 36 37 38 40 42 44 44 45 45 46 46 47 47 48 48 49 49 50 50
33 33 34 34 34 34 34 34 35 35 36 36 34 36 33 32 32 32 32 32 33 33 34 35 36 37 38 39 41 42 44 44 45 45 45 45 46 46 47 48 49 49 49 50
33 34 34 34 34 34 34 35 36 36 36 37 35 36 34 32 31 31 32 33 34 34 35 35 37 37 38 39 41 42 43 43 44 44 45 45 46 46 46 47 48 48 48 49
34 35 35 34 34 34 34 35 36 37 37 37 36 36 35 33 33 33 33 33 34 35 36 36 37 37 38 39 40 41 42 42 43 43 44 44 45 46 46 47 47 47 47 48
36 36 36 35 35 35 35 35 35 37 38 39 38 37 36 35 35 35 35 35 36 36 37 37 38 38 39 40 40 41 41 42 43 43 44 45 46 46 46 47 47 47 46 47
37 38 37 37 36 36 36 36 36 38 40 41 40 39 36 36 36 36 37 37 37 37 38 38 38 39 40 40 41 41 42 42 43 44 44 45 46 47 46 47 48 47 47 47
39 39 39 38 38 38 38 37 37 39 41 42 42 39 36 35 35 36 37 38 38 39 38 38 39 39 40 41 41 42 43 43 43 44 44 45 45 46 47 48 48 48 48 49
39 40 40 40 39 38 38 38 38 40 42 42 43 40 36 36 36 37 37 38 38 38 38 38 38 40 40 40 41 41 42 43 44 45 45 45 45 45 47 47 48 48 48 49
39 40 40 39 38 38 39 38 39 40 41 42 43 42 37 36 37 37 38 38 38 39 39 38 38 39 40 40 40 41 41 43 44 45 46 46 46 46 46 47 47 48 49 49
40 40 40 40 39 38 39 38 39 41 42 42 42 41 37 37 38 38 40 39 39 39 39 39 38 39 39 40 40 41 42 43 44 45 45 45 46 46 46 46 47 48 49 49
42 42 41 40 40 39 40 39 40 41 42 42 41 40 38 38 39 40 41 40 40 40 39 39 39 39 40 40 40 41 42 43 44 44 44 45 45 46 46 47 48 48 49 49
43 43 42 42 42 42 41 41 41 42 42 43 41 40 38 38 40 41 41 40 40 39 39 39 40 40 41 41 41 41 42 43 44 44 45 45 46 47 48 48 48 49 48 48
42 43 42 43 42 43 43 41 41 41 40 41 41 40 38 39 40 40 39 39 39 39 39 40 40 41 41 42 42 42 42 43 43 44 45 46 47 48 49 49 49 48 49 49
41 41 42 43 42 44 44 39 40 40 39 40 41 39 39 40 40 39 39 39 39 39 39 40 41 41 42 42 42 42 43 43 44 44 46 47 48 48 49 49 49 49 49 49
41 41 42 43 43 46 42 40 39 40 39 40 41 40 39 39 39 39 39 40 39 39 40 40 41 41 42 42 43 43 43 43 44 45 47 47 48 49 49 48 47 47 47 47
40 40 41 42 44 44 41 39 38 39 40 39 40 40 40 40 40 38 38 39 40 40 41 41 41 42 42 42 43 44 44 44 45 46 47 47 47 47 47 46 46 45 45 45
39 39 40 41 42 43 41 39 39 41 41 39 39 40 40 39 39 38 38 39 40 41 42 42 42 42 42 42 43 43 44 45 45 45 45 45 45 45 44 44 44 44 44 43
39 39 40 41 43 43 40 40 40 40 40 38 38 38 38 38 38 38 37 38 39 40 41 41 41 41 41 42 42 43 43 43 43 44 44 44 44 43 43 43 44 44 44 43
39 40 40 41 43 42 40 39 39 39 39 38 38 37 38 37 37 37 38 38 39 40 40 40 40 41 41 42 42 43 43 43 42 43 43 43 43 43 43 42 42 42 42 42
39 40 40 41 41 40 40 40 40 40 39 38 38 38 38 38 38 38 38 39 39 39 39 40 40 41 41 42 43 43 42 42 42 42 42 41 41 41 42 42 41 41 41 40
38 38 39 39 38 39 40 40 39 39 38 38 38 38 38 39 39 39 39 39 39 39 40 40 41 41 42 42 43 42 42 42 41 41 41 41 41 40 40 39 39 39 38 38
38 38 38 38 37 38 38 38 39 39 39 39 39 39 39 39 39 39 39 39 39 39 40 40 41 42 42 42 42 41 41 41 41 41 40 40 39 39 38 38 37 36 35 35
38 38 38 37 36 37 37 38 38 39 39 40 40 40 40 40 39 39 39 38 39 39 40 41 41 41 40 41 41 41 41 40 40 40 39 38 38 37 37 36 35 35 34 33
Wind_Direction
252 253 255 258 261 263 265 266 267 269 270 272 272 273 275 276 275 274 274 273 273 272 270 268 267 266 264 261 260 259 260 261 261 263 263 263 263 262 263 264 264 264 264 264
253 254 256 258 261 262 264 267 268 268 270 272 274 275 275 276 275 274 273 272 273 273 271 270 269 267 265 262 260 260 261 262 263 264 264 264 263 263 264 265 266 265 265 265
254 254 256 258 260 261 263 266 268 269 271 274 276 276 276 276 275 274 273 273 273 271 271 270 268 267 266 264 262 261 262 264 264 265 265 265 264 264 264 265 265 266 266 266
254 253 256 258 260 263 265 267 269 271 273 275 278 279 276 276 275 275 274 273 273 272 271 270 269 269 268 266 265 265 263 265 266 266 266 266 266 266 267 267 266 266 266 266
256 255 257 259 261 264 266 268 270 272 274 275 277 279 279 277 276 275 274 273 274 273 273 272 271 270 270 269 267 267 265 266 267 267 267 268 267 267 267 267 267 266 266 266
256 256 257 260 261 264 267 268 270 271 273 275 276 278 279 277 276 275 275 274 274 274 274 274 273 272 271 271 269 268 267 267 268 268 268 268 269 269 268 268 267 267 266 266
256 256 258 259 261 263 266 268 270 272 273 276 278 277 278 278 278 278 277 276 275 275 275 275 275 273 272 271 271 270 269 268 268 269 269 269 270 270 270 269 268 268 267 267
258 258 258 259 261 264 266 267 269 272 274 276 277 278 279 279 278 278 278 278 277 276 276 275 274 272 271 272 271 271 270 269 269 270 270 271 271 272 272 271 270 269 268 267
259 260 259 259 261 263 265 266 268 271 273 275 276 278 279 278 277 277 278 279 278 278 277 276 275 273 273 272 272 272 272 271 271 271 272 272 273 273 273 272 271 271 270 269
258 260 261 261 262 263 265 267 268 269 272 275 276 277 280 279 278 278 279 280 279 278 278 278 277 276 274 273 273 273 274 273 274 274 273 273 274 273 274 273 272 272 271 271
258 260 262 263 263 264 265 266 267 269 271 274 276 278 279 280 280 280 280 279 279 278 278 278 278 277 276 275 275 274 274 274 274 274 274 274 274 274 274 275 274 272 272 272
257 259 262 263 263 262 263 265 267 269 271 273 275 277 279 279 280 280 280 279 278 277 276 276 276 277 277 277 277 276 275 275 275 275 275 275 275 275 275 276 275 274 273 273
257 259 262 262 263 263 264 266 267 268 270 272 275 278 280 279 279 279 279 279 278 278 277 277 276 278 279 278 277 276 277 277 276 275 275 275 275 275 275 276 277 277 276 275
257 259 261 263 264 265 265 266 267 269 271 274 276 279 279 279 279 278 278 279 279 278 277 277 278 278 279 279 278 278 278 279 278 277 276 276 276 276 276 277 277 277 277 276
257 259 260 261 263 264 265 266 267 269 273 275 278 278 280 279 278 278 277 277 278 278 277 277 278 279 280 279 279 279 279 280 279 278 278 278 278 278 278 278 278 278 278 277
257 258 259 260 263 264 265 266 268 270 272 276 278 278 280 279 278 278 277 277 277 278 278 278 279 280 280 280 279 280 280 281 280 279 279 280 280 279 279 279 280 279 277 277
257 259 260 262 263 264 265 268 270 271 273 275 277 279 279 278 278 278 277 277 278 278 279 279 280 281 281 280 280 280 280 280 280 281 281 281 281 280 280 280 280 280 278 276
257 258 261 264 264 264 268 268 270 272 273 275 276 277 278 278 278 278 277 278 278 278 279 280 281 282 281 282 282 281 281 281 281 283 283 284 282 281 281 281 280 279 278 276
257 259 262 264 266 267 267 269 271 272 272 274 276 276 277 279 279 279 278 279 279 280 281 282 283 284 283 284 284 283 282 282 283 284 285 284 284 284 282 281 279 279 278 277
257 258 261 264 267 268 270 270 271 273 274 275 275 275 277 278 279 279 279 279 280 281 281 283 284 285 285 286 286 285 284 284 284 284 284 285 285 285 284 282 281 280 279 277
256 257 260 263 266 268 271 272 272 273 276 276 276 276 277 277 278 279 279 280 281 281 282 284 284 285 287 287 287 286 286 286 285 285 285 285 286 285 284 283 283 283 281 278
256 258 260 262 265 268 270 271 271 273 274 275 276 276 276 276 278 280 281 281 282 282 283 285 285 286 287 288 288 288 287 287 286 286 287 286 286 285 284 283 282 282 281 279
257 259 260 261 263 266 268 269 271 273 274 274 275 275 276 277 279 280 281 282 282 283 285 285 286 287 288 288 289 289 289 288 288 287 287 287 287 287 284 282 282 281 280 280
256 257 259 261 263 265 267 269 271 272 273 273 275 276 277 278 280 280 282 283 283 284 285 286 287 288 288 288 290 290 290 290 289 289 287 287 286 286 284 283 283 282 281 279
257 259 260 261 263 264 265 268 269 270 272 274 275 276 278 279 280 281 282 283 284 284 285 286 288 289 289 289 290 291 291 291 291 290 289 287 285 283 283 283 283 283 282 281
258 259 261 261 261 263 265 267 268 269 271 273 275 276 278 279 279 280 281 283 284 285 285 287 288 289 290 290 291 292 292 292 291 291 290 288 286 283 282 282 281 281 281 279
Height
5731 5733 5734 5735 5735 5736 5736 5735 5736 5735 5734 5733 5732 5732 5731 5728 5727 5726 5726 5725 5724 5723 5722 5722 5723 5723 5723 5724 5726 5727 5729 5730 5731 5731 5732 5733 5734 5735 5734 5735 5735 5736 5736 5736
5724 5726 5727 5727 5727 5728 5728 5728 5728 5728 5726 5724 5724 5724 5723 5720 5719 5718 5717 5716 5716 5715 5714 5714 5714 5714 5714 5715 5716 5717 5718 5719 5720 5720 5721 5721 5722 5722 5723 5723 5723 5723 5723 5724
5717 5719 5719 5719 5720 5720 5720 5720 5720 5719 5718 5717 5716 5716 5716 5713 5711 5710 5709 5708 5708 5707 5707 5706 5705 5705 5705 5706 5706 5707 5707 5708 5709 5709 5709 5709 5710 5710 5710 5710 5710 5710 5710 5711
5708 5710 5711 5711 5712 5712 5712 5712 5711 5710 5709 5709 5708 5706 5709 5706 5703 5702 5701 5700 5700 5699 5698 5697 5697 5696 5696 5696 5696 5696 5696 5696 5697 5697 5697 5697 5698 5698 5698 5698 5698 5698 5697 5697
5700 5702 5702 5703 5704 5703 5703 5703 5703 5702 5700 5700 5700 5697 5699 5697 5696 5694 5693 5692 5691 5690 5689 5688 5688 5687 5686 5686 5685 5685 5685 5685 5685 5685 5685 5685 5685 5685 5684 5684 5684 5684 5684 5684
5691 5692 5693 5694 5695 5695 5694 5694 5693 5692 5691 5691 5692 5690 5690 5689 5688 5686 5685 5684 5683 5682 5680 5679 5678 5677 5676 5675 5674 5674 5674 5674 5674 5674 5673 5673 5673 5672 5671 5671 5671 5671 5671 5670
5683 5684 5685 5685 5686 5686 5686 5686 5685 5683 5683 5683 5683 5681 5682 5680 5679 5678 5677 5675 5674 5672 5671 5670 5668 5667 5666 5664 5663 5663 5662 5663 5663 5662 5662 5661 5660 5660 5659 5658 5658 5657 5657 5657
5673 5675 5677 5677 5678 5677 5677 5678 5677 5675 5674 5673 5673 5672 5674 5672 5670 5668 5667 5666 5664 5663 5662 5660 5659 5657 5656 5655 5653 5652 5652 5652 5651 5651 5650 5649 5648 5648 5647 5646 5645 5644 5644 5643
5664 5665 5667 5668 5668 5669 5668 5668 5668 5666 5663 5663 5663 5663 5665 5663 5661 5659 5658 5656 5655 5654 5652 5651 5649 5648 5646 5645 5644 5642 5641 5641 5640 5640 5639 5638 5636 5635 5634 5633 5632 5631 5630 5630
5654 5655 5657 5657 5658 5658 5659 5659 5658 5656 5654 5652 5653 5654 5655 5654 5651 5650 5648 5646 5645 5644 5642 5641 5639 5637 5636 5634 5633 5632 5630 5630 5629 5628 5626 5625 5624 5623 5621 5620 5619 5618 5617 5616
5644 5645 5646 5647 5648 5649 5649 5649 5648 5646 5645 5643 5642 5647 5646 5644 5642 5640 5638 5636 5635 5633 5632 5630 5629 5627 5625 5624 5622 5621 5620 5618 5617 5616 5614 5613 5611 5610 5609 5607 5606 5604 5603 5602
5633 5633 5634 5637 5637 5637 5638 5638 5638 5637 5635 5633 5632 5637 5637 5635 5632 5630 5628 5626 5624 5623 5621 5620 5618 5616 5615 5613 5612 5610 5608 5607 5605 5604 5602 5600 5599 5598 5596 5594 5593 5591 5589 5588
5622 5623 5624 5625 5628 5628 5628 5628 5628 5626 5625 5623 5622 5627 5626 5624 5622 5620 5617 5616 5614 5613 5611 5609 5608 5606 5605 5603 5601 5599 5597 5595 5594 5592 5590 5588 5587 5585 5583 5581 5579 5577 5576 5574
5610 5612 5614 5616 5616 5617 5617 5618 5618 5616 5614 5614 5614 5615 5616 5613 5610 5609 5607 5605 5604 5602 5601 5599 5597 5596 5594 5592 5590 5588 5586 5584 5582 5580 5578 5577 5575 5573 5571 5568 5566 5564 5562 5560
5599 5601 5602 5604 5605 5605 5606 5607 5606 5605 5605 5604 5604 5604 5604 5602 5599 5597 5596 5594 5593 5592 5590 5588 5587 5585 5583 5581 5579 5577 5575 5572 5570 5568 5566 5565 5563 5560 5558 5555 5553 5551 5548 5546
5588 5590 5591 5592 5594 5593 5593 5596 5596 5595 5594 5593 5592 5593 5593 5590 5588 5586 5585 5583 5582 5581 5579 5578 5576 5574 5572 5570 5568 5566 5563 5561 5558 5556 5554 5552 5550 5547 5544 5542 5539 5536 5534 5532
5577 5579 5580 5581 5582 5580 5583 5587 5585 5584 5584 5583 5581 5583 5580 5579 5577 5575 5574 5572 5571 5570 5568 5567 5565 5563 5561 5559 5556 5554 5552 5549 5547 5544 5541 5539 5536 5533 5531 5528 5525 5522 5520 5518
5567 5568 5568 5569 5570 5569 5577 5576 5575 5573 5573 5572 5570 5570 5569 5567 5566 5564 5563 5561 5560 5559 5557 5555 5554 5552 5549 5547 5544 5542 5539 5536 5534 5531 5528 5525 5522 5519 5517 5514 5511 5508 5506 5504
5556 5557 5557 5557 5556 5557 5563 5564 5563 5561 5562 5561 5559 5558 5557 5556 5555 5554 5552 5551 5549 5548 5546 5544 5542 5540 5538 5535 5532 5529 5527 5524 5521 5518 5515 5512 5509 5506 5503 5500 5498 5495 5493 5490
5545 5546 5547 5546 5545 5546 5553 5553 5550 5550 5550 5550 5548 5547 5546 5545 5544 5544 5541 5540 5538 5536 5534 5532 5530 5528 5526 5523 5520 5517 5514 5512 5508 5505 5502 5498 5495 5493 5490 5487 5485 5482 5480 5478
5534 5534 5535 5534 5533 5535 5540 5540 5538 5539 5539 5538 5536 5536 5535 5534 5533 5532 5530 5529 5527 5525 5523 5521 5519 5516 5514 5511 5508 5505 5502 5499 5496 5492 5489 5486 5483 5480 5477 5475 5472 5470 5467 5465
5521 5522 5523 5523 5523 5527 5528 5527 5527 5527 5526 5526 5525 5524 5524 5523 5522 5521 5519 5517 5516 5514 5512 5509 5507 5505 5502 5499 5496 5493 5490 5487 5483 5480 5477 5474 5471 5468 5465 5463 5460 5457 5455 5453
5509 5512 5512 5513 5515 5516 5515 5515 5515 5515 5515 5514 5514 5514 5513 5512 5512 5510 5509 5507 5505 5502 5500 5498 5496 5493 5490 5487 5484 5481 5477 5474 5471 5468 5465 5462 5459 5455 5453 5450 5448 5446 5443 5442
5498 5499 5500 5501 5503 5504 5503 5503 5503 5503 5503 5503 5503 5503 5502 5501 5500 5499 5497 5495 5493 5491 5489 5486 5484 5481 5478 5475 5472 5468 5465 5462 5459 5456 5452 5450 5447 5444 5441 5438 5436 5434 5432 5431
5487 5488 5488 5490 5492 5491 5492 5492 5492 5492 5492 5492 5492 5491 5491 5490 5489 5487 5486 5484 5482 5479 5477 5474 5472 5469 5466 5463 5459 5456 5453 5450 5447 5443 5440 5437 5435 5432 5430 5428 5425 5423 5422 5419
5477 5478 5478 5479 5481 5480 5481 5481 5481 5481 5481 5481 5481 5480 5479 5478 5477 5476 5474 5472 5470 5468 5465 5462 5459 5456 5454 5451 5447 5444 5441 5438 5435 5432 5428 5426 5423 5421 5419 5417 5415 5413 5411 5410